Volver al catálogo

STARLINK-35293

ActivoComunicacionesVLEO
NORAD 66012·PAYLOAD·🇺🇸 United States

Lanzado Oct 16, 2025 desde Cape Canaveral Space Force Station

Loading…

Próximos Pases (próximas 24 horas)

TLE

ActualizadoSource: CelesTrak SupGP

Época: Sep 15, 2026, 02:40 UTC

1 66012C 25232H   26258.11159722  .00031107  00000+0  91896-3 0  2585
2 66012  53.1572 302.6127 0001310  97.7098  37.5101 15.34378364    18

Sigue STARLINK-35293 en tiempo real con AllMySat

Download on the App Store